HAZ3435 ZPPP-ZSHC

Flight info

Callsign HAZ3435
Flight time 2h 27m
Altitude 35100
Route NODIB W137 LPS A581 WHA R343 UPLEL W95 SAPIN A470 IGRAT
Aircraft B77W/H-SDE3EL/L

Departure

Time 2026-05-04 12:51
Airport Kunming Changshui International Airport (ZPPP)

Arrival

Time 2026-05-04 15:18
Airport Hangzhou Xiaoshan International Airport (ZSHC)
Time Latitude Longitude Altitude Speed Heading
2026-05-04 11:38 25.11281 102.93422 6919 ft 0 kts 38°
2026-05-04 12:29 25.11276 102.93417 6919 ft 2 kts 57°
2026-05-04 12:29 25.11269 102.93403 6919 ft 2 kts 51°
2026-05-04 12:30 25.11261 102.93394 6919 ft 0 kts 38°
2026-05-04 12:30 25.11250 102.93386 6919 ft 2 kts 24°
2026-05-04 12:30 25.11236 102.93381 6919 ft 2 kts
2026-05-04 12:30 25.11221 102.93382 6919 ft 2 kts 347°
2026-05-04 12:31 25.11207 102.93388 6919 ft 2 kts 328°
2026-05-04 12:31 25.11195 102.93398 6919 ft 1 kts 310°
2026-05-04 12:31 25.11193 102.93401 6919 ft 0 kts 308°
2026-05-04 12:33 25.11207 102.93375 6919 ft 5 kts 298°
2026-05-04 12:33 25.11226 102.93341 6919 ft 4 kts 304°
2026-05-04 12:34 25.11243 102.93315 6919 ft 6 kts 307°
2026-05-04 12:34 25.11270 102.93278 6919 ft 5 kts 308°
2026-05-04 12:34 25.11295 102.93243 6919 ft 7 kts 308°
2026-05-04 12:34 25.11334 102.93189 6919 ft 8 kts 308°
2026-05-04 12:35 25.11368 102.93142 6919 ft 6 kts 308°
2026-05-04 12:35 25.11398 102.93100 6919 ft 8 kts 308°
2026-05-04 12:35 25.11441 102.93057 6919 ft 8 kts 337°
2026-05-04 12:35 25.11510 102.93070 6919 ft 12 kts 27°
2026-05-04 12:36 25.11600 102.93137 6919 ft 18 kts 38°
2026-05-04 12:36 25.11716 102.93237 6919 ft 20 kts 37°
2026-05-04 12:36 25.11822 102.93329 6919 ft 17 kts 39°
2026-05-04 12:36 25.11912 102.93407 6919 ft 15 kts 38°
2026-05-04 12:37 25.11987 102.93473 6919 ft 14 kts 38°
2026-05-04 12:37 25.12065 102.93542 6919 ft 13 kts 38°
2026-05-04 12:37 25.12145 102.93611 6919 ft 15 kts 38°
2026-05-04 12:37 25.12233 102.93687 6919 ft 16 kts 38°
2026-05-04 12:38 25.12318 102.93761 6919 ft 15 kts 38°
2026-05-04 12:38 25.12407 102.93839 6919 ft 17 kts 38°
2026-05-04 12:38 25.12479 102.93902 6919 ft 8 kts 38°
2026-05-04 12:38 25.12524 102.93941 6919 ft 7 kts 38°
2026-05-04 12:39 25.12568 102.93979 6919 ft 8 kts 39°
2026-05-04 12:39 25.12618 102.94022 6919 ft 8 kts 38°
2026-05-04 12:39 25.12652 102.94051 6919 ft 0 kts 38°
2026-05-04 12:42 25.12668 102.94066 6919 ft 7 kts 38°
2026-05-04 12:42 25.12688 102.94083 6919 ft 0 kts 39°
2026-05-04 12:43 25.12697 102.94091 6919 ft 4 kts 39°
2026-05-04 12:43 25.12727 102.94117 6919 ft 0 kts 38°
2026-05-04 12:44 25.12729 102.94119 6919 ft 2 kts 38°
2026-05-04 12:44 25.12761 102.94147 6919 ft 0 kts 38°
2026-05-04 12:44 25.12762 102.94147 6919 ft 1 kts 38°
2026-05-04 12:45 25.12786 102.94168 6919 ft 6 kts 39°
2026-05-04 12:45 25.12806 102.94186 6919 ft 0 kts 39°
2026-05-04 12:46 25.12814 102.94193 6919 ft 5 kts 39°
2026-05-04 12:46 25.12856 102.94231 6919 ft 8 kts 39°
2026-05-04 12:47 25.12861 102.94235 6919 ft 0 kts 39°
2026-05-04 12:47 25.12867 102.94241 6919 ft 3 kts 39°
2026-05-04 12:48 25.12892 102.94259 6919 ft 6 kts 29°
2026-05-04 12:48 25.12941 102.94266 6919 ft 7 kts 345°
2026-05-04 12:48 25.12951 102.94261 6919 ft 0 kts 327°
2026-05-04 12:49 25.12981 102.94234 6919 ft 9 kts 317°
2026-05-04 12:49 25.13011 102.94160 6919 ft 12 kts 262°
2026-05-04 12:49 25.12979 102.94100 6919 ft 15 kts 224°
2026-05-04 12:50 25.12951 102.94074 6919 ft 0 kts 219°
2026-05-04 12:50 25.12946 102.94070 6919 ft 8 kts 219°
2026-05-04 12:50 25.12704 102.93858 6919 ft 80 kts 218°
2026-05-04 12:51 25.12068 102.93304 6919 ft 148 kts 218°
2026-05-04 12:51 25.11107 102.92468 7048 ft 194 kts 218°
2026-05-04 12:51 25.10044 102.91554 7757 ft 201 kts 216°
2026-05-04 12:51 25.09034 102.90492 8594 ft 204 kts 235°
2026-05-04 12:52 25.08298 102.89110 8958 ft 217 kts 239°
2026-05-04 12:52 25.07420 102.87626 9206 ft 236 kts 233°
2026-05-04 12:52 25.06328 102.86198 9632 ft 246 kts 226°
2026-05-04 12:52 25.05071 102.84929 10286 ft 245 kts 220°
2026-05-04 12:53 25.03669 102.83833 10837 ft 249 kts 214°
2026-05-04 12:53 25.02099 102.82992 11353 ft 257 kts 198°
2026-05-04 12:53 25.00279 102.82937 11825 ft 270 kts 171°
2026-05-04 12:53 24.98568 102.83863 12273 ft 282 kts 145°
2026-05-04 12:54 24.97071 102.85290 12796 ft 286 kts 141°
2026-05-04 12:54 24.95576 102.86781 13286 ft 290 kts 141°
2026-05-04 12:54 24.94075 102.88282 13752 ft 294 kts 141°
2026-05-04 12:54 24.92563 102.89796 14263 ft 296 kts 140°
2026-05-04 12:55 24.91151 102.91464 14729 ft 302 kts 131°
2026-05-04 12:55 24.89935 102.93429 15203 ft 307 kts 117°
2026-05-04 12:55 24.89434 102.95727 15606 ft 311 kts 88°
2026-05-04 12:55 24.89893 102.98013 16021 ft 307 kts 60°
2026-05-04 12:56 24.91165 102.99844 16450 ft 300 kts 39°
2026-05-04 12:56 24.92698 103.01377 16924 ft 299 kts 36°
2026-05-04 12:56 24.94295 103.02930 17377 ft 301 kts 36°
2026-05-04 12:56 24.95866 103.04456 17784 ft 304 kts 36°
2026-05-04 12:57 24.97471 103.06015 18230 ft 306 kts 36°
2026-05-04 12:57 24.99077 103.07576 18658 ft 307 kts 36°
2026-05-04 12:57 25.00689 103.09144 19097 ft 308 kts 36°
2026-05-04 12:57 25.02293 103.10704 19488 ft 310 kts 35°
2026-05-04 12:58 25.03926 103.12292 19885 ft 312 kts 35°
2026-05-04 12:58 25.05554 103.13876 20264 ft 314 kts 35°
2026-05-04 12:58 25.07203 103.15482 20642 ft 316 kts 35°
2026-05-04 12:58 25.08871 103.17102 20891 ft 329 kts 36°
2026-05-04 12:59 25.10647 103.18824 20977 ft 350 kts 36°
2026-05-04 12:59 25.12538 103.20659 21080 ft 371 kts 36°
2026-05-04 12:59 25.14530 103.22596 21207 ft 391 kts 37°
2026-05-04 12:59 25.16611 103.24622 21367 ft 410 kts 37°
2026-05-04 13:00 25.18819 103.26774 21528 ft 429 kts 37°
2026-05-04 13:00 25.21096 103.28996 21729 ft 446 kts 37°
2026-05-04 13:00 25.23486 103.31332 22294 ft 453 kts 37°
2026-05-04 13:00 25.25831 103.33629 23010 ft 454 kts 37°
2026-05-04 13:01 25.28224 103.35973 23649 ft 457 kts 37°
2026-05-04 13:01 25.30639 103.38340 24205 ft 463 kts 37°
2026-05-04 13:01 25.33065 103.40720 24774 ft 468 kts 37°
2026-05-04 13:01 25.35497 103.43106 25346 ft 473 kts 36°
2026-05-04 13:02 25.37993 103.45557 25911 ft 477 kts 36°
2026-05-04 13:02 25.40516 103.48036 26534 ft 480 kts 36°
2026-05-04 13:02 25.43002 103.50481 27063 ft 485 kts 36°
2026-05-04 13:02 25.45562 103.53000 27638 ft 489 kts 36°
2026-05-04 13:03 25.48128 103.55528 28214 ft 492 kts 36°
2026-05-04 13:03 25.50700 103.58065 28737 ft 497 kts 36°
2026-05-04 13:03 25.53138 103.60849 29220 ft 508 kts 45°
2026-05-04 13:03 25.55240 103.64046 29723 ft 517 kts 51°
2026-05-04 13:04 25.57188 103.67370 30330 ft 518 kts 52°
2026-05-04 13:04 25.59153 103.70755 30885 ft 519 kts 52°
2026-05-04 13:04 25.61091 103.74098 31482 ft 519 kts 52°
2026-05-04 13:04 25.63033 103.77448 32041 ft 518 kts 52°
2026-05-04 13:05 25.64975 103.80800 32545 ft 518 kts 52°
2026-05-04 13:05 25.66910 103.84139 33116 ft 519 kts 52°
2026-05-04 13:05 25.68845 103.87483 33850 ft 514 kts 52°
2026-05-04 13:05 25.70753 103.90782 34555 ft 511 kts 52°
2026-05-04 13:06 25.72692 103.94132 34721 ft 515 kts 52°
2026-05-04 13:06 25.74626 103.97474 34109 ft 523 kts 52°
2026-05-04 13:06 25.76597 104.00884 33328 ft 524 kts 52°
2026-05-04 13:06 25.78568 104.04299 32604 ft 523 kts 52°
2026-05-04 13:07 25.80519 104.07680 32281 ft 514 kts 51°
2026-05-04 13:07 25.82496 104.11047 32004 ft 516 kts 51°
2026-05-04 13:07 25.84495 104.14438 31732 ft 521 kts 51°
2026-05-04 13:07 25.86462 104.17782 31471 ft 520 kts 51°
2026-05-04 13:08 25.88440 104.21152 31401 ft 516 kts 51°
2026-05-04 13:08 25.92382 104.27868 31390 ft 520 kts 51°
2026-05-04 13:09 25.95847 104.33785 31387 ft 519 kts 51°
2026-05-04 13:09 25.99701 104.40376 31394 ft 517 kts 51°
2026-05-04 13:10 26.04078 104.46633 31391 ft 505 kts 37°
2026-05-04 13:10 26.09366 104.51688 31380 ft 500 kts 33°
2026-05-04 13:11 26.14739 104.56674 31383 ft 501 kts 33°
2026-05-04 13:11 26.20083 104.61639 31383 ft 501 kts 33°
2026-05-04 13:12 26.25454 104.66637 31361 ft 500 kts 33°
2026-05-04 13:12 26.30766 104.71584 31363 ft 500 kts 33°
2026-05-04 13:13 26.36118 104.76576 31358 ft 500 kts 33°
2026-05-04 13:13 26.41458 104.81565 31359 ft 498 kts 33°
2026-05-04 13:14 26.46738 104.86502 31364 ft 499 kts 33°
2026-05-04 13:14 26.52097 104.91519 31350 ft 500 kts 33°
2026-05-04 13:15 26.57455 104.96542 31347 ft 498 kts 33°
2026-05-04 13:15 26.62671 105.01807 31345 ft 507 kts 43°
2026-05-04 13:16 26.66566 105.08509 31345 ft 522 kts 59°
2026-05-04 13:16 26.69591 105.15988 31345 ft 522 kts 61°
2026-05-04 13:17 26.72552 105.23390 31345 ft 523 kts 61°
2026-05-04 13:17 26.75524 105.30823 31343 ft 523 kts 60°
2026-05-04 13:18 26.78513 105.38304 31334 ft 523 kts 61°
2026-05-04 13:18 26.81525 105.45849 31332 ft 524 kts 60°
2026-05-04 13:19 26.84482 105.53269 31325 ft 523 kts 60°
2026-05-04 13:19 26.87472 105.60784 31326 ft 523 kts 60°
2026-05-04 13:20 26.90373 105.68103 31306 ft 499 kts 60°
2026-05-04 13:20 26.91761 105.71612 31300 ft 485 kts 60°
2026-05-04 13:20 26.93138 105.75086 31305 ft 487 kts 60°
2026-05-04 13:21 26.95932 105.82130 31300 ft 491 kts 60°
2026-05-04 13:21 26.98706 105.89150 31298 ft 491 kts 60°
2026-05-04 13:22 27.01481 105.96181 31292 ft 492 kts 60°
2026-05-04 13:22 27.04258 106.03233 31287 ft 492 kts 60°
2026-05-04 13:23 27.07309 106.10056 31290 ft 489 kts 56°
2026-05-04 13:23 27.10438 106.16816 31294 ft 489 kts 56°
2026-05-04 13:24 27.13548 106.23588 31300 ft 490 kts 56°
2026-05-04 13:24 27.16671 106.30418 31296 ft 491 kts 56°
2026-05-04 13:25 27.21351 106.40694 31286 ft 491 kts 56°
2026-05-04 13:25 27.24465 106.47544 31280 ft 492 kts 56°
2026-05-04 13:26 27.27594 106.54439 31272 ft 492 kts 56°
2026-05-04 13:26 27.30732 106.61369 31267 ft 493 kts 56°
2026-05-04 13:27 27.33829 106.68220 31250 ft 492 kts 57°
2026-05-04 13:27 27.36927 106.75085 31248 ft 493 kts 57°
2026-05-04 13:28 27.40028 106.81999 31246 ft 491 kts 57°
2026-05-04 13:28 27.43099 106.88863 31253 ft 493 kts 57°
2026-05-04 13:29 27.46196 106.95797 31253 ft 493 kts 57°
2026-05-04 13:29 27.49294 107.02704 31250 ft 492 kts 56°
2026-05-04 13:30 27.52386 107.09530 31251 ft 494 kts 56°
2026-05-04 13:30 27.55498 107.16418 31252 ft 492 kts 56°
2026-05-04 13:31 27.58610 107.23318 31253 ft 494 kts 56°
2026-05-04 13:31 27.61694 107.30158 31249 ft 495 kts 56°
2026-05-04 13:32 27.64805 107.37071 31243 ft 494 kts 56°
2026-05-04 13:32 27.67926 107.44016 31240 ft 496 kts 56°
2026-05-04 13:33 27.71023 107.50925 31238 ft 495 kts 56°
2026-05-04 13:33 27.74154 107.57918 31244 ft 496 kts 56°
2026-05-04 13:34 27.77265 107.64879 31250 ft 496 kts 56°
2026-05-04 13:34 27.80398 107.71900 31234 ft 496 kts 57°
2026-05-04 13:35 27.85103 107.82361 31233 ft 499 kts 56°
2026-05-04 13:36 27.87750 107.88139 31226 ft 498 kts 56°
2026-05-04 13:36 27.91454 107.96244 31209 ft 500 kts 56°
2026-05-04 13:37 27.94667 108.03297 31211 ft 498 kts 56°
2026-05-04 13:37 27.97870 108.10339 31209 ft 499 kts 56°
2026-05-04 13:38 28.01049 108.17341 31210 ft 501 kts 56°
2026-05-04 13:38 28.04232 108.24367 31206 ft 501 kts 56°
2026-05-04 13:39 28.07403 108.31377 31203 ft 501 kts 56°
2026-05-04 13:39 28.10589 108.38431 31206 ft 502 kts 56°
2026-05-04 13:40 28.13769 108.45488 31205 ft 501 kts 56°
2026-05-04 13:40 28.16920 108.52490 31250 ft 500 kts 56°
2026-05-04 13:40 28.18510 108.56033 31664 ft 496 kts 56°
2026-05-04 13:41 28.20075 108.59519 32115 ft 494 kts 56°
2026-05-04 13:41 28.21612 108.62946 32559 ft 492 kts 56°
2026-05-04 13:41 28.23172 108.66427 33062 ft 490 kts 57°
2026-05-04 13:42 28.26250 108.73305 34071 ft 482 kts 56°
2026-05-04 13:42 28.27750 108.76663 34569 ft 477 kts 56°
2026-05-04 13:42 28.29248 108.80018 35059 ft 472 kts 56°
2026-05-04 13:42 28.30738 108.83351 35203 ft 475 kts 56°
2026-05-04 13:43 28.33794 108.90192 35208 ft 489 kts 56°
2026-05-04 13:43 28.36899 108.97162 35191 ft 496 kts 56°
2026-05-04 13:44 28.40023 109.04198 35184 ft 499 kts 56°
2026-05-04 13:44 28.43117 109.11182 35184 ft 494 kts 56°
2026-05-04 13:45 28.46205 109.18162 35177 ft 498 kts 56°
2026-05-04 13:45 28.49307 109.25204 35167 ft 496 kts 56°
2026-05-04 13:46 28.52417 109.32272 35168 ft 498 kts 56°
2026-05-04 13:46 28.55510 109.39320 35176 ft 497 kts 56°
2026-05-04 13:47 28.58497 109.46428 35173 ft 502 kts 62°
2026-05-04 13:47 28.61061 109.53873 35176 ft 502 kts 63°
2026-05-04 13:48 28.63615 109.61358 35170 ft 503 kts 62°
2026-05-04 13:48 28.66167 109.68784 35140 ft 501 kts 62°
2026-05-04 13:49 28.68823 109.76162 35137 ft 503 kts 62°
2026-05-04 13:49 28.71472 109.83535 35144 ft 501 kts 62°
2026-05-04 13:50 28.74101 109.90870 35155 ft 505 kts 62°
2026-05-04 13:50 28.76764 109.98328 35177 ft 504 kts 62°
2026-05-04 13:51 28.79406 110.05742 35173 ft 504 kts 62°
2026-05-04 13:51 28.82070 110.13232 35167 ft 504 kts 62°
2026-05-04 13:52 28.86006 110.24335 35161 ft 503 kts 62°
2026-05-04 13:53 28.88622 110.31731 35161 ft 505 kts 62°
2026-05-04 13:53 28.91257 110.39196 35166 ft 506 kts 62°
2026-05-04 13:54 28.95203 110.50404 35176 ft 507 kts 62°
2026-05-04 13:55 28.99130 110.61596 35170 ft 505 kts 62°
2026-05-04 13:55 29.03063 110.72837 35142 ft 507 kts 63°
2026-05-04 13:56 29.05703 110.80294 35131 ft 504 kts 62°
2026-05-04 13:57 29.09669 110.91481 35145 ft 507 kts 62°
2026-05-04 13:58 29.14945 111.06436 35152 ft 506 kts 62°
2026-05-04 13:58 29.18904 111.17702 35140 ft 504 kts 62°
2026-05-04 13:59 29.21559 111.25271 35134 ft 508 kts 63°
2026-05-04 14:00 29.25493 111.36527 35128 ft 507 kts 63°
2026-05-04 14:00 29.29409 111.47765 35120 ft 507 kts 63°
2026-05-04 14:01 29.32022 111.55282 35124 ft 506 kts 63°
2026-05-04 14:02 29.36255 111.66404 35107 ft 499 kts 52°
2026-05-04 14:02 29.40017 111.73042 35103 ft 495 kts 50°
2026-05-04 14:03 29.43851 111.79725 35100 ft 496 kts 50°
2026-05-04 14:03 29.47655 111.86369 35098 ft 501 kts 50°
2026-05-04 14:04 29.53553 111.96694 35098 ft 526 kts 51°
2026-05-04 14:04 29.57621 112.03844 35099 ft 528 kts 51°
2026-05-04 14:05 29.63625 112.14428 35104 ft 527 kts 51°
2026-05-04 14:06 29.67592 112.21432 35106 ft 526 kts 51°
2026-05-04 14:06 29.71599 112.28516 35113 ft 526 kts 51°
2026-05-04 14:07 29.75607 112.35628 35112 ft 527 kts 51°
2026-05-04 14:07 29.79589 112.42739 35118 ft 525 kts 51°
2026-05-04 14:08 29.83568 112.49852 35121 ft 526 kts 51°
2026-05-04 14:08 29.87530 112.56950 35122 ft 525 kts 51°
2026-05-04 14:09 29.93468 112.67633 35100 ft 523 kts 52°
2026-05-04 14:10 29.99404 112.78339 35107 ft 526 kts 53°
2026-05-04 14:10 30.03324 112.85416 35114 ft 524 kts 53°
2026-05-04 14:11 30.07266 112.92541 35118 ft 528 kts 53°
2026-05-04 14:11 30.13144 113.03191 35111 ft 523 kts 53°
2026-05-04 14:12 30.17020 113.10226 35114 ft 518 kts 53°
2026-05-04 14:13 30.22896 113.20888 35082 ft 521 kts 52°
2026-05-04 14:13 30.26834 113.27895 35104 ft 517 kts 52°
2026-05-04 14:14 30.30735 113.34844 35122 ft 516 kts 52°
2026-05-04 14:14 30.36588 113.45301 35116 ft 517 kts 52°
2026-05-04 14:15 30.44424 113.59351 35122 ft 519 kts 52°
2026-05-04 14:16 30.50250 113.69831 35103 ft 516 kts 53°
2026-05-04 14:17 30.55462 113.80840 35128 ft 524 kts 70°
2026-05-04 14:17 30.56703 113.89205 35130 ft 530 kts 90°
2026-05-04 14:18 30.56551 113.93458 35116 ft 528 kts 96°
2026-05-04 14:19 30.55074 114.10505 35116 ft 531 kts 97°
2026-05-04 14:19 30.54283 114.19016 35106 ft 529 kts 97°
2026-05-04 14:20 30.53476 114.27566 35115 ft 531 kts 98°
2026-05-04 14:20 30.52646 114.36140 35119 ft 532 kts 98°
2026-05-04 14:21 30.51396 114.48898 35122 ft 531 kts 98°
2026-05-04 14:21 30.50548 114.57451 35120 ft 532 kts 98°
2026-05-04 14:22 30.49693 114.66022 35131 ft 532 kts 99°
2026-05-04 14:22 30.48829 114.74613 35114 ft 531 kts 98°
2026-05-04 14:23 30.47534 114.87383 35115 ft 533 kts 99°
2026-05-04 14:24 30.46649 114.96030 35120 ft 534 kts 99°
2026-05-04 14:24 30.45772 115.04550 35131 ft 533 kts 99°
2026-05-04 14:25 30.44883 115.13126 35141 ft 534 kts 99°
2026-05-04 14:25 30.42928 115.25809 35167 ft 530 kts 115°
2026-05-04 14:26 30.39543 115.33363 35171 ft 521 kts 128°
2026-05-04 14:26 30.35681 115.40411 35163 ft 520 kts 128°
2026-05-04 14:27 30.31742 115.47506 35164 ft 520 kts 129°
2026-05-04 14:27 30.27778 115.54598 35087 ft 522 kts 129°
2026-05-04 14:28 30.25767 115.58179 34793 ft 528 kts 129°
2026-05-04 14:28 30.23778 115.61719 34307 ft 528 kts 129°
2026-05-04 14:28 30.21794 115.65248 33815 ft 524 kts 130°
2026-05-04 14:28 30.19795 115.68800 33492 ft 515 kts 130°
2026-05-04 14:29 30.15889 115.75715 32987 ft 523 kts 130°
2026-05-04 14:29 30.11928 115.82716 32493 ft 518 kts 130°
2026-05-04 14:30 30.09941 115.86224 32244 ft 518 kts 130°
2026-05-04 14:30 30.07989 115.89665 32002 ft 517 kts 130°
2026-05-04 14:30 30.04041 115.96614 31509 ft 517 kts 130°
2026-05-04 14:31 30.02076 116.00071 31268 ft 515 kts 130°
2026-05-04 14:31 29.98139 116.06982 30773 ft 515 kts 130°
2026-05-04 14:32 29.94159 116.13959 30247 ft 514 kts 130°
2026-05-04 14:32 29.92205 116.17379 30012 ft 513 kts 129°
2026-05-04 14:32 29.90239 116.20818 29743 ft 513 kts 129°
2026-05-04 14:32 29.88287 116.24229 29460 ft 513 kts 129°
2026-05-04 14:33 29.86295 116.27706 29176 ft 517 kts 129°
2026-05-04 14:33 29.84317 116.31155 28911 ft 516 kts 129°
2026-05-04 14:33 29.82325 116.34628 28621 ft 514 kts 129°
2026-05-04 14:33 29.80316 116.38126 28352 ft 517 kts 129°
2026-05-04 14:34 29.78328 116.41585 28066 ft 515 kts 129°
2026-05-04 14:34 29.76368 116.44998 27886 ft 508 kts 129°
2026-05-04 14:34 29.74419 116.48386 27881 ft 510 kts 129°
2026-05-04 14:34 29.72439 116.51820 27893 ft 514 kts 129°
2026-05-04 14:35 29.70457 116.55257 27871 ft 511 kts 129°
2026-05-04 14:35 29.68473 116.58697 27874 ft 513 kts 129°
2026-05-04 14:35 29.66517 116.62083 27874 ft 512 kts 129°
2026-05-04 14:35 29.64512 116.65549 27677 ft 515 kts 130°
2026-05-04 14:36 29.62520 116.68996 27408 ft 510 kts 130°
2026-05-04 14:36 29.60554 116.72395 27153 ft 505 kts 130°
2026-05-04 14:36 29.58626 116.75725 26892 ft 503 kts 130°
2026-05-04 14:36 29.56658 116.79118 26622 ft 504 kts 130°
2026-05-04 14:37 29.54741 116.82421 26367 ft 502 kts 130°
2026-05-04 14:37 29.52778 116.85804 26099 ft 497 kts 129°
2026-05-04 14:37 29.50847 116.89127 25845 ft 497 kts 129°
2026-05-04 14:37 29.48944 116.92399 25570 ft 494 kts 129°
2026-05-04 14:38 29.47041 116.95668 25317 ft 491 kts 129°
2026-05-04 14:38 29.45130 116.98947 24815 ft 491 kts 129°
2026-05-04 14:38 29.43841 117.01158 24444 ft 490 kts 129°
2026-05-04 14:38 29.41340 117.05446 23738 ft 482 kts 129°
2026-05-04 14:39 29.39578 117.08643 23231 ft 478 kts 122°
2026-05-04 14:39 29.38198 117.12146 22780 ft 474 kts 112°
2026-05-04 14:39 29.37315 117.15810 22327 ft 469 kts 103°
2026-05-04 14:40 29.37079 117.23180 21426 ft 460 kts 83°
2026-05-04 14:40 29.37685 117.26744 20978 ft 456 kts 73°
2026-05-04 14:40 29.38748 117.30116 20883 ft 448 kts 65°
2026-05-04 14:40 29.40029 117.33441 20880 ft 454 kts 65°
2026-05-04 14:41 29.41311 117.36768 20891 ft 454 kts 65°
2026-05-04 14:41 29.42586 117.40118 20896 ft 454 kts 65°
2026-05-04 14:41 29.45108 117.46829 20889 ft 453 kts 65°
2026-05-04 14:42 29.47583 117.53483 20904 ft 454 kts 66°
2026-05-04 14:42 29.48817 117.56818 20906 ft 454 kts 66°
2026-05-04 14:42 29.50049 117.60153 20893 ft 453 kts 66°
2026-05-04 14:43 29.51271 117.63472 20905 ft 454 kts 66°
2026-05-04 14:43 29.52496 117.66801 20895 ft 453 kts 66°
2026-05-04 14:43 29.53749 117.70214 20900 ft 455 kts 66°
2026-05-04 14:43 29.54959 117.73516 20899 ft 454 kts 66°
2026-05-04 14:44 29.56187 117.76869 20897 ft 454 kts 66°
2026-05-04 14:44 29.57400 117.80187 20905 ft 454 kts 66°
2026-05-04 14:44 29.58625 117.83540 20909 ft 452 kts 66°
2026-05-04 14:44 29.59834 117.86849 20901 ft 454 kts 66°
2026-05-04 14:45 29.61075 117.90253 20909 ft 455 kts 66°
2026-05-04 14:45 29.62302 117.93623 20914 ft 454 kts 66°
2026-05-04 14:45 29.63521 117.96971 20913 ft 454 kts 66°
2026-05-04 14:45 29.64747 118.00344 20914 ft 455 kts 67°
2026-05-04 14:46 29.65968 118.03706 20909 ft 456 kts 66°
2026-05-04 14:46 29.67199 118.07098 20922 ft 454 kts 67°
2026-05-04 14:46 29.68423 118.10474 20919 ft 455 kts 66°
2026-05-04 14:46 29.69644 118.13846 20916 ft 455 kts 67°
2026-05-04 14:47 29.70852 118.17184 20911 ft 454 kts 66°
2026-05-04 14:47 29.72065 118.20562 20623 ft 455 kts 69°
2026-05-04 14:47 29.72949 118.24056 20241 ft 451 kts 79°
2026-05-04 14:47 29.73278 118.27650 19855 ft 445 kts 90°
2026-05-04 14:48 29.73130 118.31166 19465 ft 441 kts 96°
2026-05-04 14:48 29.72859 118.34712 19063 ft 438 kts 96°
2026-05-04 14:48 29.72574 118.38197 18645 ft 435 kts 96°
2026-05-04 14:48 29.72283 118.41647 18249 ft 430 kts 96°
2026-05-04 14:49 29.71988 118.45070 18133 ft 428 kts 96°
2026-05-04 14:49 29.71690 118.48466 18130 ft 430 kts 96°
2026-05-04 14:49 29.71380 118.51940 18122 ft 430 kts 96°
2026-05-04 14:49 29.71071 118.55374 18125 ft 430 kts 96°
2026-05-04 14:50 29.70761 118.58798 18129 ft 430 kts 96°
2026-05-04 14:50 29.70450 118.62209 18124 ft 430 kts 96°
2026-05-04 14:50 29.70132 118.65669 18119 ft 428 kts 97°
2026-05-04 14:50 29.69818 118.69076 18117 ft 429 kts 97°
2026-05-04 14:51 29.69500 118.72543 18124 ft 430 kts 97°
2026-05-04 14:51 29.69188 118.76002 18107 ft 430 kts 97°
2026-05-04 14:51 29.68878 118.79447 18116 ft 430 kts 97°
2026-05-04 14:51 29.68568 118.82868 18113 ft 429 kts 97°
2026-05-04 14:52 29.68256 118.86296 18127 ft 429 kts 97°
2026-05-04 14:52 29.67946 118.89688 18127 ft 430 kts 97°
2026-05-04 14:52 29.67632 118.93112 18042 ft 430 kts 97°
2026-05-04 14:52 29.67315 118.96564 17689 ft 428 kts 96°
2026-05-04 14:53 29.66999 118.99997 17223 ft 425 kts 96°
2026-05-04 14:53 29.66691 119.03327 16718 ft 420 kts 96°
2026-05-04 14:53 29.66384 119.06644 16208 ft 415 kts 96°
2026-05-04 14:53 29.66097 119.09915 15660 ft 406 kts 93°
2026-05-04 14:54 29.66167 119.13138 15116 ft 395 kts 83°
2026-05-04 14:54 29.66725 119.16175 14580 ft 385 kts 71°
2026-05-04 14:54 29.67741 119.18963 14175 ft 370 kts 61°
2026-05-04 14:54 29.69091 119.21422 13880 ft 358 kts 55°
2026-05-04 14:55 29.70473 119.23727 13568 ft 351 kts 55°
2026-05-04 14:55 29.71874 119.26035 13246 ft 345 kts 54°
2026-05-04 14:55 29.73248 119.28276 12936 ft 344 kts 54°
2026-05-04 14:55 29.74632 119.30521 12622 ft 342 kts 54°
2026-05-04 14:56 29.75993 119.32721 12307 ft 339 kts 54°
2026-05-04 14:56 29.77366 119.34940 11989 ft 337 kts 54°
2026-05-04 14:56 29.78707 119.37105 11846 ft 334 kts 54°
2026-05-04 14:56 29.80067 119.39303 11832 ft 336 kts 54°
2026-05-04 14:57 29.81432 119.41509 11831 ft 336 kts 54°
2026-05-04 14:57 29.82779 119.43689 11829 ft 336 kts 54°
2026-05-04 14:57 29.84150 119.45907 11828 ft 336 kts 54°
2026-05-04 14:57 29.85491 119.48078 11826 ft 336 kts 54°
2026-05-04 14:58 29.86863 119.50300 11825 ft 336 kts 54°
2026-05-04 14:58 29.88224 119.52507 11824 ft 336 kts 54°
2026-05-04 14:58 29.89591 119.54723 11826 ft 335 kts 54°
2026-05-04 14:58 29.90481 119.56168 11826 ft 335 kts 54°
2026-05-04 14:59 29.92284 119.59094 11821 ft 334 kts 54°
2026-05-04 14:59 29.93643 119.61302 11819 ft 335 kts 54°
2026-05-04 14:59 29.96368 119.65731 11817 ft 335 kts 54°
2026-05-04 15:00 29.97711 119.67916 11820 ft 337 kts 54°
2026-05-04 15:00 29.99075 119.70137 11810 ft 336 kts 54°
2026-05-04 15:00 30.00427 119.72340 11804 ft 337 kts 54°
2026-05-04 15:01 30.03130 119.76756 11803 ft 338 kts 56°
2026-05-04 15:01 30.04295 119.79071 11802 ft 338 kts 61°
2026-05-04 15:01 30.05384 119.81480 11803 ft 338 kts 62°
2026-05-04 15:01 30.06462 119.83889 11801 ft 338 kts 62°
2026-05-04 15:02 30.07544 119.86301 11790 ft 337 kts 62°
2026-05-04 15:02 30.08629 119.88718 11800 ft 338 kts 62°
2026-05-04 15:02 30.09731 119.91168 11809 ft 339 kts 62°
2026-05-04 15:02 30.10834 119.93623 11386 ft 343 kts 62°
2026-05-04 15:03 30.11921 119.96041 10670 ft 344 kts 62°
2026-05-04 15:03 30.13020 119.98489 9927 ft 343 kts 62°
2026-05-04 15:03 30.14116 120.00932 9193 ft 343 kts 62°
2026-05-04 15:03 30.15225 120.03405 8441 ft 342 kts 62°
2026-05-04 15:04 30.16324 120.05858 7691 ft 341 kts 62°
2026-05-04 15:04 30.17403 120.08266 7064 ft 335 kts 62°
2026-05-04 15:04 30.18445 120.10593 6915 ft 315 kts 62°
2026-05-04 15:04 30.19429 120.12789 6924 ft 304 kts 62°
2026-05-04 15:05 30.20388 120.14931 6898 ft 289 kts 62°
2026-05-04 15:05 30.21287 120.16942 6896 ft 275 kts 62°
2026-05-04 15:05 30.22154 120.18887 6910 ft 272 kts 62°
2026-05-04 15:05 30.23027 120.20850 6895 ft 271 kts 62°
2026-05-04 15:06 30.23885 120.22778 6897 ft 272 kts 62°
2026-05-04 15:06 30.24761 120.24751 6749 ft 272 kts 62°
2026-05-04 15:06 30.25632 120.26710 6595 ft 271 kts 62°
2026-05-04 15:07 30.27354 120.30586 6208 ft 269 kts 62°
2026-05-04 15:07 30.28199 120.32488 6114 ft 264 kts 62°
2026-05-04 15:07 30.29035 120.34373 6112 ft 264 kts 62°
2026-05-04 15:07 30.29887 120.36294 6106 ft 264 kts 62°
2026-05-04 15:08 30.30724 120.38182 6106 ft 264 kts 62°
2026-05-04 15:08 30.31569 120.40089 6108 ft 263 kts 62°
2026-05-04 15:08 30.32406 120.41979 6074 ft 265 kts 62°
2026-05-04 15:08 30.33250 120.43885 5829 ft 265 kts 63°
2026-05-04 15:09 30.34090 120.45785 5590 ft 263 kts 63°
2026-05-04 15:09 30.34932 120.47688 5376 ft 263 kts 63°
2026-05-04 15:09 30.35762 120.49566 5147 ft 262 kts 63°
2026-05-04 15:10 30.37362 120.53188 4714 ft 241 kts 64°
2026-05-04 15:10 30.38112 120.54886 4511 ft 230 kts 64°
2026-05-04 15:10 30.39521 120.58084 4103 ft 218 kts 65°
2026-05-04 15:11 30.40213 120.59654 3870 ft 214 kts 65°
2026-05-04 15:11 30.40876 120.61157 3651 ft 205 kts 65°
2026-05-04 15:11 30.41480 120.62613 3441 ft 196 kts 76°
2026-05-04 15:11 30.41567 120.64176 3260 ft 193 kts 106°
2026-05-04 15:12 30.41003 120.65552 3073 ft 184 kts 136°
2026-05-04 15:12 30.39965 120.66412 3035 ft 184 kts 163°
2026-05-04 15:12 30.38709 120.66606 3026 ft 181 kts 190°
2026-05-04 15:12 30.37514 120.66097 3029 ft 181 kts 217°
2026-05-04 15:13 30.36679 120.65037 3023 ft 182 kts 242°
2026-05-04 15:13 30.36103 120.63727 3000 ft 182 kts 244°
2026-05-04 15:13 30.35371 120.62516 2972 ft 182 kts 223°
2026-05-04 15:13 30.34282 120.61770 2978 ft 180 kts 202°
2026-05-04 15:14 30.33138 120.61179 3016 ft 180 kts 221°
2026-05-04 15:14 30.32313 120.60049 3017 ft 184 kts 241°
2026-05-04 15:14 30.31751 120.58713 2797 ft 184 kts 245°
2026-05-04 15:14 30.31187 120.57374 2541 ft 181 kts 243°
2026-05-04 15:15 30.30605 120.56072 2302 ft 180 kts 242°
2026-05-04 15:15 30.30043 120.54819 2084 ft 172 kts 242°
2026-05-04 15:15 30.29505 120.53609 1868 ft 165 kts 242°
2026-05-04 15:16 30.28494 120.51336 1437 ft 150 kts 242°
2026-05-04 15:16 30.28031 120.50295 1244 ft 141 kts 242°
2026-05-04 15:16 30.27167 120.48349 904 ft 145 kts 243°
2026-05-04 15:17 30.26695 120.47289 691 ft 146 kts 243°
2026-05-04 15:17 30.25773 120.45183 301 ft 144 kts 242°
2026-05-04 15:17 30.25314 120.44159 130 ft 143 kts 243°
2026-05-04 15:18 30.24880 120.43190 44 ft 124 kts 240°
2026-05-04 15:18 30.24556 120.42493 44 ft 70 kts 244°
2026-05-04 15:18 30.24392 120.42126 44 ft 46 kts 243°
2026-05-04 15:19 30.24174 120.41826 44 ft 0 kts 217°
2026-05-04 15:19 30.24132 120.41805 45 ft 13 kts 187°
2026-05-04 15:20 30.24099 120.41882 44 ft 12 kts 73°
2026-05-04 15:20 30.24136 120.41972 44 ft 11 kts 65°
2026-05-04 15:20 30.24161 120.42059 44 ft 11 kts 84°
2026-05-04 15:20 30.24139 120.42144 44 ft 10 kts 104°
2026-05-04 15:21 30.24138 120.42157 44 ft 0 kts 96°
2026-05-04 15:21 30.24142 120.42200 44 ft 14 kts 75°
2026-05-04 15:22 30.24202 120.42344 44 ft 24 kts 57°
2026-05-04 15:22 30.24289 120.42547 44 ft 30 kts 64°
2026-05-04 15:22 30.24423 120.42853 44 ft 18 kts 63°
2026-05-04 15:23 30.24480 120.42979 44 ft 17 kts 63°
2026-05-04 15:23 30.24543 120.43121 42 ft 22 kts 63°
2026-05-04 15:23 30.24576 120.43195 42 ft 0 kts 63°
2026-05-04 15:24 30.24576 120.43196 42 ft 1 kts 63°
2026-05-04 15:24 30.24567 120.43306 42 ft 10 kts 143°
2026-05-04 15:25 30.24510 120.43246 41 ft 18 kts 242°
2026-05-04 15:25 30.24449 120.43114 42 ft 13 kts 244°
2026-05-04 15:25 30.24412 120.43031 44 ft 0 kts 243°
2026-05-04 15:26 30.24399 120.43000 44 ft 10 kts 243°
2026-05-04 15:26 30.24262 120.42705 44 ft 20 kts 243°
2026-05-04 15:27 30.24207 120.42579 44 ft 0 kts 243°
2026-05-04 15:27 30.24195 120.42551 44 ft 6 kts 243°
2026-05-04 15:28 30.24121 120.42499 44 ft 6 kts 197°
2026-05-04 15:28 30.24079 120.42481 44 ft 6 kts 203°
2026-05-04 15:28 30.24063 120.42473 44 ft 0 kts 203°